#timestamp,LO_Frequency,Hit,StdDev 
1506564015.7,286047004.0,N
1506564035.5,286047005.8,N
1506564055.3,286047004.5,N
1506564075.2,286047005.3,N
1506564095.9,286047008.7,Y
1506564115.7,286047012.4,P
1506564135.6,286047010.3,N
1506564155.4,286047012.3,N
1506564175.2,286047011.4,N
1506564195.1,286047009.5,N
1506564196.0,286047009.5,N
1506564215.8,286047013.2,Y
1506564235.6,286047005.0,P
1506564255.5,286047003.6,N
1506564275.3,286047007.2,N
1506564295.1,286047006.4,N
1506564315.9,286047007.1,Y
1506564335.7,286046999.4,P
1506564355.5,286046999.4,N
1506564375.4,286046997.1,N
1506564395.2,286047000.7,N
1506564415.0,286046998.2,N
1506564415.9,286046998.2,N
1506564435.8,286047000.0,N
1506564455.6,286047000.5,N
1506564475.4,286047002.6,N
1506564495.2,286047003.9,N
1506564515.1,286047005.6,N
1506564516.0,286047005.6,N
1506564535.8,286047004.3,N
1506564555.6,286047002.3,N
1506564575.5,286047002.1,N
1506564595.3,286047002.1,N
1506564615.1,286047002.2,N
1506564635.9,286047001.6,N
1506564655.7,286047000.3,N
1506564675.5,286047002.2,N
1506564695.4,286047004.0,N
1506564715.2,286047001.7,N
1506564735.0,286047001.5,N
1506564735.9,286047001.5,N
1506564755.7,286047002.4,N
1506564775.6,286047002.0,N
1506564795.4,286047004.4,N
1506564815.2,286047004.3,N
1506564835.1,286047002.4,N
1506564836.0,286047002.4,N
1506564855.8,286047001.4,N
1506564875.6,286047001.3,N
1506564895.5,286047003.7,N
1506564915.3,286047003.3,N
1506564935.1,286047005.1,N
1506564955.9,286047003.6,N
1506564975.7,286047005.7,Y
1506564995.5,286047003.2,P
1506565015.4,286047006.7,P
1506565035.2,286047004.9,N
1506565055.0,286047005.9,Y
1506565055.9,286047005.9,P
1506565075.8,286047000.3,N
1506565095.6,286046998.6,N
1506565115.4,286046998.2,N
1506565135.3,286046998.6,N
1506565155.1,286047000.9,N
1506565156.0,286047000.9,N
1506565175.8,286047001.2,N
1506565195.7,286046998.7,N
1506565215.5,286046999.2,N
1506565235.3,286046999.3,N
1506565255.1,286047000.4,N
1506565275.9,286047000.5,N
1506565295.7,286047000.1,N
1506565315.5,286047000.0,N
1506565335.4,286047002.1,N
1506565355.2,286047002.5,N
1506565375.0,286046999.8,N
1506565375.9,286046999.8,N
1506565395.8,286047001.9,N
1506565415.6,286047002.6,N
1506565435.4,286047000.9,N
1506565455.3,286046999.8,N
1506565475.1,286047001.5,N
1506565476.0,286047001.5,N
1506565495.8,286047001.6,N
1506565515.7,286047002.0,N
1506565535.5,286047004.4,N
1506565555.3,286047004.4,N
1506565575.1,286047003.0,N
1506565595.9,286047003.4,N
1506565615.7,286047005.9,Y
1506565635.6,286047002.0,P
1506565655.4,286047001.9,P
1506565675.2,286047002.4,P
1506565695.0,286047000.8,N
1506565695.9,286047000.8,N
1506565715.8,286047002.4,Y
1506565735.6,286047000.0,P
1506565755.4,286047003.7,P
1506565775.3,286047004.2,N
1506565795.1,286047003.0,N
1506565815.8,286047003.3,N
1506565835.7,286047004.4,Y
1506565855.5,286046998.7,P
1506565875.3,286046998.4,N
1506565895.2,286046998.7,N
1506565915.0,286046999.6,N
1506565915.9,286046999.6,N
1506565935.7,286046998.2,N
1506565955.6,286046999.9,N
1506565975.4,286046998.8,N
1506565995.2,286046999.6,N
1506566015.1,286046996.7,N
1506566016.0,286046996.7,N
1506566035.8,286046998.3,N
1506566055.6,286046998.7,N
1506566075.5,286046998.3,N
1506566095.3,286046998.3,N
1506566115.1,286047000.4,N
1506566135.9,286047002.3,N
1506566155.7,286046999.8,N
1506566175.5,286047002.8,N
1506566195.3,286047002.3,N
1506566215.2,286047001.3,N
1506566235.0,286047004.0,N
1506566235.9,286047004.0,N
1506566255.7,286047001.8,N
1506566275.6,286047000.0,N
1506566295.4,286047002.8,N
1506566315.2,286047000.6,N
1506566335.1,286046998.3,N
1506566336.0,286046998.3,N
1506566355.8,286046999.5,N
1506566375.6,286046998.6,N
1506566395.5,286047001.9,N
1506566415.3,286047001.5,N
1506566435.1,286047002.6,N
1506566455.9,286047002.2,N
1506566475.7,286047002.2,N
1506566495.5,286046999.8,N
1506566515.4,286047002.5,N
1506566535.2,286047002.7,N
1506566555.0,286047002.2,N
1506566555.9,286047002.2,N
1506566575.7,286047001.9,N
1506566595.6,286047002.2,N
1506566615.4,286047002.8,N
1506566635.2,286047002.3,N
1506566655.1,286047004.2,N
1506566656.0,286047004.2,N
1506566675.8,286047001.9,N
1506566695.6,286047003.5,N
1506566715.5,286047002.0,N
1506566735.3,286047004.3,N
1506566755.1,286047004.4,N
1506566775.9,286047005.4,Y
1506566795.7,286047004.1,P
1506566815.5,286047002.9,N
1506566835.4,286047004.9,P
1506566855.2,286047004.8,Y
1506566875.0,286047002.4,P
1506566875.9,286047002.4,P
1506566895.8,286047002.4,P
1506566915.6,286046999.7,N
1506566935.4,286047002.8,N
1506566955.3,286047002.8,N
1506566975.1,286047002.2,N
1506566976.0,286047002.2,N
1506566995.8,286047002.7,N
1506567015.7,286047004.2,Y
1506567035.5,286046998.7,P
1506567055.3,286047000.5,N
1506567075.2,286047002.8,N
1506567095.9,286047000.2,N
1506567115.7,286047002.8,N
1506567135.6,286047000.5,N
1506567155.4,286047000.6,N
1506567175.2,286047002.5,N
1506567195.1,286047004.2,Y
1506567196.0,286047004.2,P
1506567215.8,286047000.2,N
1506567235.6,286047000.0,N
1506567255.5,286047000.4,N
1506567275.3,286047000.2,N
1506567295.1,286046998.7,N
1506567315.8,286046996.6,N
1506567335.7,286046997.2,N
1506567355.5,286046996.8,N
1506567375.3,286046999.4,N
1506567395.2,286046998.4,N
1506567415.9,286046998.6,N
1506567435.7,286046998.0,N
1506567455.6,286046994.9,N
1506567475.4,286046996.5,N
1506567495.2,286046999.6,N
1506567515.1,286046997.7,N
1506567516.0,286046997.7,N
1506567535.8,286046997.9,N
1506567555.6,286046994.9,N
1506567575.5,286046995.7,N
1506567595.3,286046997.7,N
